Regional Weather Roundup
Issued by NWS Little Rock, AR

Home | Current Version | Previous Version | Graphics & Text | Print | Product List | Glossary On
Versions: 1 2 3 4 5 6 7 8 9 10 11 12 13 14 15 16 17 18 19 20 21 22 23 24 25 26 27 28 29 30 31 32 33 34 35 36 37 38 39 40 41 42 43 44 45 46 47 48 49 50
000
ASUS44 KLZK 010805
RWRLZK

WEATHER ROUNDUP FOR ARKANSAS
NATIONAL WEATHER SERVICE LITTLE ROCK AR
300 AM CDT WED APR 01 2015

NOTE: "FAIR" INDICATES FEW OR NO CLOUDS BELOW 12,000 FEET WITH NO
SIGNIFICANT WEATHER AND/OR OBSTRUCTIONS TO VISIBILITY.

ARZ001-003-010-029-010900-
NORTHWEST ARKANSAS

CITY           SKY/WX    TMP DP  RH WIND       PRES   REMARKS
FAYETTEVILLE   CLOUDY    52  50  93 CALM      29.94R
FORT SMITH     CLOUDY    65  59  81 CALM      29.92R
HARRISON       PTCLDY    60  53  77 N6        29.95S
BENTONVILLE    CLOUDY    54  48  82 CALM      29.94S
ROGERS         CLOUDY    57  52  83 E5        29.94R
SILOAM SPGS    CLOUDY    57  46  67 E5        29.94F
HIGHFILL       CLOUDY    56  51  84 CALM      29.93R
$$

ARZ004-005-016-010900-
NORTH CENTRAL ARKANSAS

CITY           SKY/WX    TMP DP  RH WIND       PRES   REMARKS
BATESVILLE     MOCLDY    61  55  82 N3        29.94F
FLIPPIN        CLEAR     59  52  77 E5        29.95R
MTN HOME       CLEAR     60  53  77 E8        29.96R
$$

ARZ040-041-010900-
WEST CENTRAL ARKANSAS

CITY           SKY/WX    TMP DP  RH WIND       PRES   REMARKS
MENA           CLOUDY    64  63  94 CALM      29.95S
MOUNT IDA      CLOUDY    64  61  90 CALM      29.91S
$$

ARZ009-017-025-026-028-010900-
NORTHEAST ARKANSAS

CITY           SKY/WX    TMP DP  RH WIND       PRES   REMARKS
CORNING          N/A     55  55 100 NE10      29.98F
JONESBORO      CLEAR     57  55  93 NE8       29.95S
NEWPORT        CLEAR     58  57  96 N5        29.95S
BLYTHEVILLE    CLEAR     54  53  97 NE8       29.99R
$$

ARZ022-023-033-042-044-010900-
CENTRAL ARKANSAS

CITY           SKY/WX    TMP DP  RH WIND       PRES   REMARKS
LITTLE ROCK    CLOUDY    62  58  86 NE3       29.94R
N LITTLE ROCK    N/A     65  63  94 NE6       29.94R
JACKSONVILLE   PTCLDY    59  59 100 NE2       29.93S FOG
SEARCY         CLEAR     60  60 100 CALM      29.95F FOG
HOT SPRINGS    CLOUDY    61  60  97 CALM      29.94S FOG
RUSSELLVILLE   MOCLDY    62  60  93 SE3       29.92R
CLINTON        FOG       55  55 100 CALM      29.96R VSB 1/4
$$

ARZ036-010900-
EAST ARKANSAS

CITY           SKY/WX    TMP DP  RH WIND       PRES   REMARKS
WEST MEMPHIS   FOG       60  60 100 SE5       29.95S VSB 1/2
$$

ARZ050-053-066-070-073-010900-
SOUTHWEST ARKANSAS

CITY           SKY/WX    TMP DP  RH WIND       PRES   REMARKS
ARKADELPHIA    FAIR      60  60 100 CALM      29.94F FOG
CAMDEN         MOCLDY    59  57  94 CALM      29.95F FOG
TEXARKANA      MOCLDY    60  59  96 CALM      29.95F FOG
EL DORADO      PTCLDY    58  56  93 CALM      29.96F
DE QUEEN       FOG       59  58  96 CALM      29.92F VSB 1/2
$$

ARZ056-057-069-010900-
SOUTHEAST ARKANSAS

CITY           SKY/WX    TMP DP  RH WIND       PRES   REMARKS
PINE BLUFF     MOCLDY    64  61  90 CALM      29.93F
STUTTGART      PTCLDY    63  57  82 SE5       29.95S
MONTICELLO     CLOUDY    62  60  93 CALM      29.94F

$$





USA.gov is the U.S. government's official web portal to all federal, state and local government web resources and services.